DW1590 Weather Reports


Display with metric or nautical units.
time (UTC)temp
F
wind
direction
speed
MPH
gust
MPH
rain 1hr
in
rain 24hr
in
rain mn
in
humidity
%
barometer
mb
20260502191535 58 317 4.0 0.0 0.00 0.00 0.00 45 1011.7
20260502190026 58 360 5.0 0.0 0.00 0.00 0.00 45 1011.8
20260502184521 61 360 4.0 0.0 0.00 0.00 0.00 43 1011.9
20260502183020 58 242 3.0 0.0 0.00 0.00 0.00 46 1012.2
20260502181512 58 253 5.0 0.0 0.00 0.00 0.00 46 1012.5
20260502163041 56 36 3.0 0.0 0.00 0.00 0.00 51 1013.1
20260502161537 56 292 3.0 0.0 0.00 0.00 0.00 53 1013.3
20260502151521 54 301 4.0 0.0 0.00 0.00 0.00 57 1013.6
20260502123033 49 336 5.0 0.0 0.00 0.00 0.00 58 1013.5
20260502121532 49 355 6.0 0.0 0.00 0.00 0.00 57 1013.6
20260502114520 49 340 5.0 0.0 0.00 0.00 0.00 57 1013.3
20260502113016 49 355 3.0 0.0 0.00 0.00 0.00 58 1013.4
20260502111511 49 280 3.0 0.0 0.00 0.00 0.00 59 1013.3
20260502110009 49 314 4.0 0.0 0.00 0.00 0.00 60 1013.1
20260502104503 49 360 3.0 0.0 0.00 0.00 0.00 61 1013.0
20260502103059 49 332 4.0 0.0 0.00 0.00 0.00 62 1013.0
20260502101608 50 325 5.0 0.0 0.00 0.00 0.00 62 1012.8
20260502071502 53 347 4.0 0.0 0.00 0.00 0.00 100 1011.6
20260502070116 53 305 2.0 0.0 0.00 0.00 0.00 100 1011.5
20260502064555 53 263 3.0 0.0 0.00 0.00 0.00 100 1011.5
20260502063049 53 284 4.0 0.0 0.00 0.00 0.00 100 1011.9
20260502061545 53 348 3.0 0.0 0.00 0.00 0.00 100 1012.0
20260502060044 53 296 3.0 0.0 0.00 0.00 0.00 100 1012.3
20260502054547 53 305 0.0 0.0 0.00 0.00 0.00 100 1012.1
20260502053031 53 290 0.0 0.0 0.00 0.00 0.00 100 1012.0
20260502051527 53 254 0.0 0.0 0.00 0.00 0.00 100 1012.3
20260502050023 53 249 0.0 0.0 0.00 0.00 0.00 100 1012.2
20260502044518 53 249 0.0 0.0 0.00 0.00 0.00 100 1012.4
20260502043014 53 249 0.0 0.0 0.00 0.00 0.00 100 1012.2
20260502041521 53 249 0.0 0.0 0.00 0.00 0.00 100 1011.9
20260502040005 54 231 0.0 0.0 0.00 0.00 0.00 100 1011.8
20260502034501 55 231 0.0 0.0 0.00 0.00 0.00 33 1011.7
20260502033057 56 231 2.0 0.0 0.00 0.00 0.00 56 1011.8
20260502031552 56 178 0.0 0.0 0.00 0.00 0.00 58 1011.3
20260502030108 56 171 1.0 0.0 0.00 0.00 0.00 58 1011.0
20260502024554 56 119 1.0 0.0 0.00 0.00 0.00 58 1010.9
20260502023054 56 119 0.0 0.0 0.00 0.00 0.00 59 1011.0
20260502021534 56 117 1.0 0.0 0.00 0.00 0.00 62 1011.3
20260502020030 56 128 0.0 0.0 0.00 0.00 0.00 63 1011.3
20260502014530 57 135 2.0 0.0 0.00 0.00 0.00 63 1011.1
20260502013021 57 130 1.0 0.0 0.00 0.00 0.00 62 1010.9
20260502011518 58 126 2.0 0.0 0.00 0.00 0.00 60 1010.8
20260502010015 58 112 2.0 0.0 0.00 0.00 0.00 59 1010.7
20260502004508 58 126 2.0 0.0 0.00 0.00 0.00 58 1010.2
20260502003007 59 92 1.0 0.0 0.00 0.00 0.00 57 1010.3
20260502001605 60 144 3.0 0.0 0.00 0.00 0.00 55 1009.9
20260502000106 60 65 2.0 0.0 0.00 0.00 0.00 54 1009.9
20260501234551 62 111 3.0 0.0 0.00 0.00 0.00 52 1009.7
20260501233102 63 135 1.0 0.0 0.00 0.00 0.00 47 1009.2
20260501231552 63 150 1.0 0.0 0.00 0.00 0.00 46 1009.5
20260501230109 63 214 2.0 0.0 0.00 0.00 0.00 47 1009.4
20260501224547 64 212 4.0 0.0 0.00 0.00 0.00 44 1009.6
20260501223029 65 198 3.0 0.0 0.00 0.00 0.00 43 1009.3
20260501221526 66 195 3.0 0.0 0.00 0.00 0.00 44 1009.5
20260501220021 66 189 3.0 0.0 0.00 0.00 0.00 41 1009.8
20260501214517 66 186 4.0 0.0 0.00 0.00 0.00 41 1009.8
20260501213011 66 202 6.0 0.0 0.00 0.00 0.00 41 1010.0
20260501211508 66 165 4.0 0.0 0.00 0.00 0.00 40 1010.0
20260501210003 66 215 4.0 0.0 0.00 0.00 0.00 40 1009.9
20260501204559 66 157 5.0 0.0 0.00 0.00 0.00 42 1010.0
20260501203055 66 146 5.0 0.0 0.00 0.00 0.00 42 1010.3
20260501201551 66 206 6.0 0.0 0.00 0.00 0.00 43 1010.3
20260501200045 66 103 4.0 0.0 0.00 0.00 0.00 44 1010.6
20260501194541 65 213 3.0 0.0 0.00 0.00 0.00 42 1011.0
20260501193039 66 186 4.0 0.0 0.00 0.00 0.00 41 1011.1